Theta_e
321 320 319 319 317 315 312 311 309 309 308 307 306 306 305 305 307 306 308 309 311 311 309 308 309 308 307 306 306 306 306 305 307 306 305 306 308 308 310 314 316 320 322
317 317 318 317 316 314 312 310 309 309 307 307 307 307 306 306 306 306 307 309 311 312 311 308 308 308 307 306 306 305 303 304 307 304 301 299 303 305 309 310 314 319 321
316 315 315 316 315 313 311 309 309 309 308 308 308 307 307 305 304 305 306 308 311 312 311 310 309 308 307 306 305 305 304 302 304 306 304 297 297 300 306 309 311 313 313
317 315 314 315 313 311 312 310 309 308 308 307 306 304 303 301 303 304 306 307 310 310 312 311 310 308 307 306 306 309 306 304 303 304 308 305 304 299 298 306 308 311 312
316 316 315 314 311 313 310 310 308 307 308 308 307 306 305 304 306 306 305 305 307 308 311 310 309 308 309 307 307 307 306 306 305 305 305 306 306 305 301 299 304 309 313
315 315 315 311 313 312 311 309 307 305 306 307 308 306 305 305 304 304 304 305 305 307 308 308 308 308 310 308 308 308 307 307 307 309 311 309 308 306 305 304 302 308 312
313 314 309 307 307 307 307 307 305 304 306 306 307 307 307 306 304 304 304 304 304 305 306 306 307 308 308 309 310 312 312 307 306 307 310 311 311 312 311 308 308 309 312
314 310 306 305 305 307 305 306 304 304 305 306 311 310 311 309 306 305 305 305 304 306 307 306 308 309 312 311 313 313 311 309 307 309 308 309 311 311 311 310 309 306 308
310 307 306 308 307 304 304 304 304 304 304 308 307 308 311 307 305 306 305 306 307 309 308 307 307 308 309 309 310 309 311 313 312 312 310 309 310 312 312 312 310 306 302
309 307 305 304 304 304 304 305 305 304 305 306 309 309 308 309 308 307 307 309 306 307 307 307 308 307 308 308 307 307 309 311 312 313 313 312 312 312 311 309 310 308 302
306 305 305 306 304 304 304 304 304 304 304 308 309 308 308 309 308 307 307 308 305 305 306 307 307 307 309 309 307 307 311 309 310 311 311 311 312 312 310 309 309 308 305
304 305 303 304 303 303 304 304 305 304 306 306 310 308 307 308 307 307 307 308 307 305 306 307 306 307 313 311 310 311 309 311 310 308 308 309 312 310 310 309 308 307 305
302 302 302 301 303 302 303 304 305 305 308 310 309 308 307 307 306 306 309 308 311 311 308 306 306 307 307 310 310 312 311 307 308 307 308 306 306 306 305 305 305 305 307
305 302 301 300 302 304 304 304 305 306 307 309 310 309 311 306 306 307 311 311 311 311 311 311 309 305 304 307 307 310 309 307 306 305 306 304 304 304 304 306 305 306 305
302 301 300 300 302 303 304 304 305 306 307 310 309 309 312 309 310 309 312 313 309 311 312 308 305 302 303 304 305 305 307 307 305 306 306 305 311 314 309 303 302 304 303
303 304 303 302 303 304 304 305 305 306 308 310 310 312 312 312 311 306 308 311 309 309 312 311 306 300 304 303 304 305 304 311 312 309 307 306 313 312 311 311 310 306 303
309 305 304 304 303 304 305 304 305 307 308 308 311 312 309 311 311 307 306 308 306 307 306 307 308 301 300 301 300 302 302 306 311 311 309 310 311 306 303 308 311 310 309
310 310 307 306 304 304 304 304 306 306 308 309 311 312 310 310 311 310 306 305 305 306 305 310 309 302 301 301 298 300 302 304 306 308 308 306 306 301 301 307 307 307 307
310 312 312 312 311 307 305 304 305 306 309 308 310 312 312 306 307 310 307 305 304 304 307 311 308 308 302 300 298 298 297 304 306 310 312 308 306 301 300 306 303 302 302
310 311 312 313 310 312 312 306 306 305 305 310 311 313 313 311 308 309 307 309 307 307 308 307 306 307 305 303 299 297 297 299 302 307 306 308 305 299 299 300 300 295 295
307 309 309 310 311 313 308 309 308 307 308 311 312 312 312 310 308 306 309 311 310 312 306 306 305 305 305 304 300 298 297 298 298 303 304 300 299 298 297 297 297 298 295
305 307 306 306 308 310 311 311 308 311 310 311 312 311 312 312 311 308 309 308 311 311 306 304 305 307 306 303 302 299 297 298 296 297 302 301 298 296 296 296 296 296 297
303 304 304 305 307 309 308 308 310 313 312 311 308 311 312 312 311 310 310 306 304 307 308 309 309 305 306 305 302 301 298 297 294 296 298 300 298 296 296 296 296 296 296
302 304 303 304 305 308 311 311 310 312 313 312 311 311 311 308 311 311 309 305 304 302 302 305 304 304 299 303 304 303 300 298 298 299 298 299 299 298 299 299 300 301 299
302 302 302 303 305 307 307 309 311 313 312 311 311 311 309 306 310 312 311 308 306 305 305 304 302 300 298 302 303 300 300 298 298 294 292 293 294 295 297 299 301 302 300
302 302 302 303 304 307 306 307 309 310 309 308 308 309 310 305 309 311 311 305 301 301 298 298 301 302 298 296 295 296 295 295 293 291 290 291 291 292 294 295 297 300 302
Wind_Speed
4 10 7 7 6 5 5 5 4 1 2 2 3 3 3 4 3 3 5 4 4 5 5 4 5 4 3 4 5 3 3 3 1 3 4 4 5 6 5 6 5 6 7
6 7 7 6 6 6 5 5 3 0 1 1 2 2 2 3 3 3 5 5 5 5 4 5 5 5 4 5 4 2 2 2 2 2 0 4 5 3 3 3 5 8 5
6 7 7 5 6 7 5 6 5 4 2 3 2 3 2 3 4 4 4 5 6 6 5 6 5 5 4 4 4 3 3 3 2 5 3 1 4 3 3 2 2 3 3
10 8 6 6 7 5 6 7 6 4 3 2 2 2 1 2 2 3 4 5 5 6 6 6 5 5 4 5 4 3 2 2 4 3 4 4 3 2 4 3 2 2 2
5 8 6 7 3 8 7 7 5 2 2 2 2 2 3 2 3 3 6 5 5 5 6 6 6 6 4 5 5 4 3 3 3 3 2 3 4 3 2 4 3 4 4
7 7 6 7 5 6 7 4 2 3 3 2 3 2 4 5 3 4 4 4 4 4 5 6 5 5 5 5 4 4 3 3 3 2 4 3 2 3 3 2 0 4 4
8 8 6 7 7 7 4 4 4 2 4 3 3 5 6 4 3 4 3 5 4 3 6 5 6 4 5 5 4 4 4 4 3 3 2 2 2 2 2 3 2 3 2
3 3 8 6 7 8 6 4 2 1 5 5 5 4 5 3 3 3 3 3 2 4 4 6 5 6 6 6 5 3 4 4 4 4 2 1 1 2 2 3 4 4 3
7 9 8 4 7 6 5 6 3 4 6 5 5 5 3 4 3 5 3 2 4 3 5 5 5 6 6 6 6 4 4 4 3 4 5 2 2 3 3 3 2 3 4
6 6 6 7 5 6 6 5 4 5 4 5 2 2 4 3 3 3 4 3 4 3 5 6 5 6 6 6 6 5 3 2 4 4 6 5 3 3 4 2 2 3 4
8 7 6 6 7 4 4 4 5 3 3 3 2 2 4 3 3 2 3 2 3 5 5 4 5 5 6 6 5 6 6 5 5 4 3 6 5 4 1 2 3 3 3
7 7 8 7 7 6 6 6 4 5 4 3 1 2 4 4 4 3 4 4 4 3 4 4 4 4 5 5 6 5 6 6 6 5 7 7 5 7 5 4 4 3 4
7 5 4 6 7 6 6 5 6 5 5 3 2 3 4 4 5 6 5 4 5 4 3 3 4 5 4 5 5 5 5 5 5 3 5 5 7 6 4 5 5 3 3
3 5 6 7 7 7 7 6 6 4 4 5 4 4 5 5 6 5 5 3 4 4 3 4 5 3 3 4 5 6 6 4 4 4 4 5 6 5 5 5 5 4 4
2 2 5 7 7 7 6 6 6 5 4 6 4 5 6 5 4 4 5 4 2 4 3 1 1 2 2 2 5 5 6 5 4 3 3 3 3 6 5 3 3 4 3
3 4 7 8 8 8 7 6 7 5 3 4 5 6 6 5 6 4 4 3 3 3 3 1 3 2 1 4 5 3 3 4 3 3 3 2 2 4 4 3 2 4 4
16 9 4 8 8 8 8 8 7 4 4 5 5 5 5 4 5 5 4 5 4 2 2 2 4 4 3 4 5 5 3 3 4 2 2 3 3 4 3 4 3 3 3
10 12 7 6 8 6 7 6 7 6 5 5 4 5 6 5 4 2 2 3 3 4 3 4 5 5 5 7 5 4 4 3 4 4 2 4 2 1 2 3 5 5 2
7 5 5 1 4 7 8 7 7 6 5 6 5 5 5 5 4 4 3 3 3 3 4 4 4 6 7 9 7 2 2 3 5 3 3 5 3 2 1 4 2 3 3
7 7 7 6 6 9 9 6 8 5 7 6 6 4 4 5 6 4 5 3 4 5 3 5 4 7 7 9 8 6 1 2 3 4 3 6 5 5 3 2 3 0 3
8 8 8 8 10 8 5 6 9 9 9 6 5 6 5 6 7 5 3 3 5 5 5 5 5 6 7 7 9 9 4 3 2 2 2 2 6 6 3 2 2 4 1
7 8 7 8 10 10 5 8 8 9 6 6 6 7 6 5 4 5 4 4 4 5 5 4 6 5 7 10 10 11 10 7 4 4 2 4 6 7 7 3 7 6 2
8 6 6 8 8 10 7 9 10 7 5 7 7 6 7 5 5 5 5 3 4 4 4 4 5 5 4 5 12 12 11 9 4 4 7 7 8 8 6 9 9 4 2
6 6 7 7 7 8 10 9 10 7 6 7 9 6 5 6 5 3 4 4 4 4 4 4 4 4 3 4 4 5 4 6 5 5 5 6 7 6 5 4 5 4 4
5 6 6 6 6 6 7 6 8 6 4 6 7 8 5 6 5 5 5 5 6 6 5 5 4 3 4 6 7 7 5 5 4 3 1 2 2 3 3 3 5 4 4
4 6 7 7 7 6 6 6 6 5 5 4 5 6 6 5 4 3 4 8 11 11 11 12 6 4 10 9 9 12 11 10 10 2 2 3 3 4 4 4 5 3 5
Wind_Direction
150 154 152 133 138 135 150 134 114 332 5 343 332 339 331 326 330 340 334 338 332 330 332 322 319 320 324 302 297 279 274 292 261 334 320 300 272 263 232 229 220 211 212
178 163 165 162 158 174 187 133 126 249 318 314 289 259 269 285 279 312 313 318 319 320 318 320 314 320 320 319 319 283 289 266 223 214 177 313 328 318 279 241 230 216 179
171 196 191 170 170 199 163 157 177 208 231 263 291 328 357 349 346 342 317 319 309 305 316 310 308 317 313 295 289 275 237 266 282 211 184 261 242 317 312 338 247 195 177
183 214 212 171 195 196 180 163 204 211 240 314 312 8 28 314 275 270 281 300 307 301 304 311 314 311 303 304 289 270 251 219 264 291 212 237 169 194 320 325 17 18 212
232 210 181 195 166 153 181 191 196 287 311 314 309 351 341 274 279 295 320 325 314 313 304 315 328 322 309 309 302 306 288 225 244 217 261 236 228 198 161 270 333 36 35
200 162 219 119 153 170 191 135 171 278 291 341 331 265 255 280 315 309 311 317 314 310 327 326 328 324 328 344 343 341 332 312 282 271 258 214 221 200 177 202 256 127 55
161 180 160 154 175 190 167 172 212 268 293 3 317 250 250 264 261 278 276 310 311 312 317 321 324 321 318 338 329 334 333 337 316 317 292 292 259 247 185 123 119 165 114
195 201 168 179 167 183 185 178 225 312 301 300 279 253 243 252 261 273 283 291 260 274 302 312 322 329 332 337 343 337 342 349 337 338 339 181 280 237 129 158 147 78 83
188 173 183 156 155 169 172 196 189 241 267 297 307 306 306 269 277 294 273 277 280 297 328 323 338 331 337 339 330 339 354 353 329 350 20 14 354 35 64 87 94 134 139
192 199 181 159 169 177 196 198 222 239 274 290 281 315 321 302 276 289 331 261 295 311 320 323 330 335 343 354 354 344 350 60 334 2 5 352 350 44 54 70 78 78 109
195 187 181 189 188 186 200 212 245 263 297 290 290 322 318 312 294 322 306 267 306 311 334 332 340 357 11 5 15 3 349 53 31 65 10 16 49 57 76 54 54 65 111
180 183 185 185 182 193 191 218 240 263 273 258 313 272 290 287 307 282 266 261 257 275 324 346 360 358 14 3 7 1 8 6 48 22 46 15 33 33 53 70 50 66 68
207 221 198 201 196 193 198 225 252 260 265 264 250 257 280 293 275 247 235 256 285 323 357 330 5 347 13 345 356 10 21 28 47 49 62 46 45 45 36 47 60 87 77
229 223 204 214 202 202 198 216 248 264 271 275 273 276 267 267 277 255 247 248 272 282 313 340 347 53 20 7 4 14 31 31 51 42 58 64 76 82 69 60 56 61 88
55 165 201 208 208 208 217 236 236 239 248 274 278 290 264 245 269 271 249 267 309 293 299 97 35 2 22 18 8 24 23 30 358 15 47 39 40 69 88 96 68 85 83
263 183 190 201 210 215 220 227 242 254 266 286 288 294 282 264 258 253 273 242 288 281 304 244 179 250 307 322 355 23 6 12 13 321 290 278 8 47 60 59 146 149 134
332 290 212 202 207 212 207 219 227 240 241 273 275 290 289 271 302 241 222 240 262 265 285 316 169 229 246 266 308 355 0 350 339 319 317 289 36 36 28 21 33 207 194
347 331 334 351 303 250 225 232 233 231 254 275 275 274 276 265 275 268 158 234 246 256 256 230 199 222 248 239 254 324 341 342 321 289 231 213 212 9 45 21 58 63 161
304 312 311 322 295 259 285 249 254 247 253 253 266 272 290 251 260 269 251 226 213 244 247 258 222 219 243 230 227 230 348 329 352 339 246 193 202 268 44 89 52 11 338
318 312 297 287 286 282 249 253 262 252 262 263 254 258 270 245 260 267 238 234 214 233 247 274 238 237 239 246 220 198 214 334 339 349 3 154 189 196 187 131 144 53 281
315 325 326 320 307 289 247 221 250 245 249 258 264 254 245 249 249 247 248 225 244 248 252 261 266 246 226 242 222 204 188 206 255 276 255 228 233 230 223 159 206 225 221
316 314 319 318 314 320 297 276 259 261 244 242 249 261 245 240 248 227 240 259 264 257 263 271 273 253 244 221 224 214 208 182 196 241 253 255 254 252 266 268 247 272 271
309 313 318 315 331 330 289 282 271 264 286 276 253 241 257 247 239 237 258 255 255 267 273 274 275 286 251 234 221 216 208 199 192 223 236 240 271 272 273 262 266 266 252
310 312 326 329 336 351 12 343 303 306 296 296 294 267 256 255 241 258 235 236 250 248 248 267 265 293 286 248 238 224 203 196 218 253 263 259 260 269 257 281 257 231 207
306 319 324 315 318 320 330 335 348 352 354 31 346 314 274 257 252 234 260 236 230 197 229 244 220 227 269 257 205 183 189 201 208 162 242 269 269 281 277 271 252 252 221
297 317 316 317 318 316 323 327 331 343 350 48 352 328 331 315 282 259 297 249 259 254 238 246 206 234 232 251 232 193 190 183 155 122 227 255 255 262 273 275 283 251 219